Flag for Ukraine Weather past 2 weeks in Chernobyl, Ukraine

Now
55 °F

Cool.


Feels Like: 53 °F
Forecast: 48 / 55 °F
Wind: 10 mph from West

Location: Hostomel

Current Time: Oct 21, 2014 at 1:51:13 AM

Latest Report: Oct 21, 2014 at 1:00 AM


Visibility: N/A

Pressure: 29.68 "Hg

Humidity: 94%

Dew point: 54 °F

Location of ChernobylLocation

Historic Weather in Chernobyl — Graph

°F

Chernobyl temperature yesterday

Maximum temperature yesterday: 61 °F (at 12:30 PM)
Minimum temperature yesterday: 43 °F (at 12:00 AM)
Average temperature yesterday: 53 °F

Past Weeks' High & Low Weather Summary

 TemperatureHumidityPressure
High73 °F (Oct 13, 3:30 PM)100% (Oct 11, 7:00 AM)30.57 "Hg (Oct 11, 7:00 AM)
Low23 °F (Oct 19, 8:00 AM)25% (Oct 14, 3:00 PM)28.00 "Hg (Oct 17, 8:04 AM)
Average52 °F70%30.10 "Hg
* Reported Midnight between Oct 5 and Oct 6 — Midnight between Oct 20 and Oct 21, Chernobyl, Weather by CustomWeather, © 2014

Note: Actual official high and low records may vary slightly from our data, if they occured in-between our weather recording intervals... More about our weather records

Advertising

Chernobyl weather history for previous 24 hours

 ConditionsComfort  
Time TempWeatherWind HumidityBarometerVisibility
12:00 AM
Oct 21
55 °FCool.13 mph94%29.71 "HgN/A
11:00 PM
Oct 20
55 °FCool.13 mph94%29.71 "HgN/A
10:00 PM55 °FCool.13 mph94%29.71 "HgN/A
9:00 PM55 °FCool.13 mph94%29.71 "HgN/A
8:00 PM55 °FCool.10 mph94%29.71 "Hg6 mi
7:00 PM54 °FCool.8 mph100%29.71 "Hg5 mi
6:00 PM55 °FCool.10 mph100%29.71 "HgN/A
5:00 PM55 °FSprinkles. Broken clouds.10 mph100%29.71 "Hg6 mi
4:30 PM55 °FSprinkles. Broken clouds.13 mph100%29.71 "Hg4 mi
4:00 PM55 °FSprinkles. Broken clouds.13 mph100%29.71 "Hg6 mi
3:30 PM55 °FSprinkles. Broken clouds.8 mph100%29.71 "Hg4 mi
3:00 PM55 °FSprinkles. Broken clouds.13 mph100%29.71 "Hg4 mi
2:30 PM55 °FSprinkles. Broken clouds.13 mph100%29.71 "Hg4 mi
2:00 PM55 °FSprinkles. Broken clouds.15 mph100%29.74 "Hg3 mi
1:30 PM59 °FSprinkles. Partly sunny.13 mph88%29.71 "HgN/A
1:00 PM61 °FPartly sunny.13 mph77%29.74 "HgN/A
12:30 PM61 °FPartly sunny.15 mph77%29.71 "HgN/A
12:00 PM59 °FPartly sunny.15 mph77%29.74 "HgN/A
11:30 AM59 °FPartly sunny.17 mph77%29.74 "HgN/A
11:00 AM57 °FPartly sunny.15 mph77%29.74 "HgN/A
10:30 AM55 °FSunny.15 mph77%29.77 "Hg10 mi
10:00 AM54 °FSunny.15 mph82%29.77 "Hg10 mi
9:30 AM50 °FSunny.13 mph88%29.77 "Hg10 mi
9:00 AM48 °FSunny.15 mph87%29.80 "Hg10 mi
8:00 AM45 °FClear.13 mph93%29.83 "Hg10 mi
6:00 AM45 °FQuite cool.13 mph93%29.89 "HgN/A
5:00 AM45 °FQuite cool.13 mph93%29.92 "HgN/A
4:00 AM45 °FQuite cool.13 mph87%29.95 "HgN/A
3:00 AM46 °FCool.15 mph76%29.98 "HgN/A
2:00 AM45 °FQuite cool.15 mph76%30.01 "HgN/A
1:00 AM45 °FQuite cool.13 mph71%30.04 "HgN/A
Weather by CustomWeather, © 2014

See weather overviewHow to use our weather pages